Weather History for Provincetown, MA

Change the Weather History Date:

Monday, February 18, 2013

  Actual Average Record
Temperature  
Mean Temperature 26 °F -  
Max Temperature 32 °F 36 °F 51 °F (2008)
Min Temperature 19 °F 26 °F -3 °F (1958)
Degree Days  
Heating Degree Days 40    
Moisture  
Dew Point 9 °F    
Average Humidity 49    
Maximum Humidity 68    
Minimum Humidity 32    
Precipitation  
Precipitation 0.00 in - - ()
Sea Level Pressure  
Sea Level Pressure 29.91 in    
Wind  
Wind Speed 31 mph (WNW)    
Max Wind Speed 39 mph    
Max Gust Speed 52 mph    
Visibility 10 miles    
Events      
Averages and records for this station are not official NWS values.
T = Trace of Precipitation, MM = Missing Value Source: NWS Daily Summary

Daily Weather History Graph

Daily Weather History Graph

Search for Another Location

Airport:

Trip Planner

Search our weather history database for the weather conditions in past years. The results will help you decide how hot, cold, wet, or windy it might be!

Date:

Astronomy

Feb. 18, 2013 Rise Set
Actual Time 6:32 AM EST 5:17 PM EST
Civil Twilight 6:03 AM EST 5:46 PM EST
Nautical Twilight 5:31 AM EST 6:18 PM EST
Astronomical Twilight 4:58 AM EST 6:51 PM EST
Moon 10:58 AM EST (2/18) 1:11 AM EST (2/18)
Length of Visible Light 11h 42m
Length of Day
10h 45m
First Quarter, 58% of the Moon is Illuminated
Feb 18
First Quarter
Feb 25
Full
Mar 4
Last Quarter
Mar 11
New
Mar 19
First Quarter

Hourly Weather History & Observations

Time (EST) Temp. Windchill Dew Point Humidity Pressure Visibility Wind Dir Wind Speed Gust Speed Precip Events Conditions
12:15 AM 21.2 °F 1.2 °F 8.6 °F 58% 29.61 in 10.0 mi WNW 38.0 mph 43.7 mph N/A   Overcast
12:35 AM 21.2 °F 2.7 °F 10.4 °F 63% 29.62 in 10.0 mi WNW 31.1 mph 44.9 mph N/A   Overcast
12:55 AM 21.2 °F 2.4 °F 8.6 °F 58% 29.63 in 10.0 mi WNW 32.2 mph 43.7 mph N/A   Overcast
1:15 AM 21.2 °F 2.7 °F 8.6 °F 58% 29.64 in 10.0 mi WNW 31.1 mph 44.9 mph N/A   Overcast
1:35 AM 21.2 °F 3.3 °F 8.6 °F 58% 29.65 in 10.0 mi WNW 28.8 mph 41.4 mph N/A   Overcast
1:55 AM 21.2 °F 2.4 °F 8.6 °F 58% 29.65 in 10.0 mi WNW 32.2 mph 42.6 mph N/A   Scattered Clouds
2:15 AM 21.2 °F 2.7 °F 8.6 °F 58% 29.66 in 10.0 mi WNW 31.1 mph 44.9 mph N/A   Mostly Cloudy
2:35 AM 21.2 °F 2.2 °F 8.6 °F 58% 29.67 in 10.0 mi WNW 33.4 mph 47.2 mph N/A   Scattered Clouds
2:55 AM 19.4 °F -0.6 °F 8.6 °F 63% 29.68 in 10.0 mi WNW 34.5 mph 44.9 mph N/A   Scattered Clouds
3:15 AM 21.2 °F 3.0 °F 10.4 °F 63% 29.69 in 10.0 mi WNW 29.9 mph 43.7 mph N/A   Partly Cloudy
3:35 AM 21.2 °F 1.4 °F 10.4 °F 63% 29.69 in 10.0 mi WNW 36.8 mph 44.9 mph N/A   Clear
3:55 AM 21.2 °F 1.9 °F 10.4 °F 63% 29.70 in 10.0 mi WNW 34.5 mph 44.9 mph N/A   Partly Cloudy
4:15 AM 21.2 °F 1.7 °F 10.4 °F 63% 29.71 in 10.0 mi WNW 35.7 mph 46.0 mph N/A   Clear
4:35 AM 21.2 °F 1.4 °F 8.6 °F 58% 29.72 in 10.0 mi WNW 36.8 mph 48.3 mph N/A   Clear
4:55 AM 21.2 °F 0.9 °F 10.4 °F 63% 29.73 in 10.0 mi WNW 39.1 mph 49.5 mph N/A   Clear
5:15 AM 21.2 °F 1.4 °F 10.4 °F 63% 29.74 in - WNW 36.8 mph 49.5 mph N/A   Clear
5:35 AM 21.2 °F 1.4 °F 8.6 °F 58% 29.75 in 10.0 mi WNW 36.8 mph 51.8 mph N/A   Clear
5:55 AM 21.2 °F 2.7 °F 8.6 °F 58% 29.78 in 10.0 mi WNW 31.1 mph 44.9 mph N/A   Clear
6:15 AM 21.2 °F 3.0 °F 8.6 °F 58% 29.79 in 10.0 mi NW 29.9 mph 46.0 mph N/A   Clear
6:35 AM 21.2 °F 1.2 °F 10.4 °F 63% 29.80 in 10.0 mi WNW 38.0 mph 47.2 mph N/A   Clear
6:55 AM 21.2 °F 1.9 °F 8.6 °F 58% 29.81 in 10.0 mi WNW 34.5 mph 43.7 mph N/A   Clear
7:15 AM 21.2 °F 2.2 °F 10.4 °F 63% 29.82 in 10.0 mi WNW 33.4 mph 47.2 mph N/A   Clear
7:35 AM 21.2 °F 1.4 °F 10.4 °F 63% 29.83 in 10.0 mi NW 36.8 mph 49.5 mph N/A   Clear
7:55 AM 21.2 °F 1.7 °F 12.2 °F 68% 29.84 in 10.0 mi WNW 35.7 mph 46.0 mph N/A   Clear
8:15 AM 21.2 °F 1.4 °F 10.4 °F 63% 29.86 in 10.0 mi WNW 36.8 mph 43.7 mph N/A   Clear
8:35 AM 23.0 °F 4.9 °F 10.4 °F 59% 29.87 in 10.0 mi WNW 32.2 mph 46.0 mph N/A   Clear
8:55 AM 23.0 °F 4.1 °F 10.4 °F 59% 29.89 in 10.0 mi WNW 35.7 mph 43.7 mph N/A   Clear
9:15 AM 24.8 °F 7.1 °F 10.4 °F 54% 29.89 in 9.0 mi WNW 33.4 mph 43.7 mph N/A   Clear
9:35 AM 24.8 °F 6.8 °F 10.4 °F 54% 29.90 in 10.0 mi WNW 34.5 mph 43.7 mph N/A   Clear
9:55 AM 24.8 °F 6.6 °F 10.4 °F 54% 29.90 in 10.0 mi WNW 35.7 mph 42.6 mph N/A   Clear
10:15 AM 26.6 °F 10.3 °F 10.4 °F 51% 29.91 in 10.0 mi WNW 29.9 mph 44.9 mph N/A   Clear
10:35 AM 26.6 °F 10.3 °F 12.2 °F 55% 29.92 in 10.0 mi NW 29.9 mph 46.0 mph N/A   Clear
10:55 AM 26.6 °F 10.6 °F 10.4 °F 51% 29.93 in 10.0 mi WNW 28.8 mph 41.4 mph N/A   Clear
11:15 AM 28.4 °F 12.7 °F 10.4 °F 47% 29.92 in 10.0 mi WNW 29.9 mph 42.6 mph N/A   Clear
11:35 AM 28.4 °F 13.3 °F 10.4 °F 47% 29.93 in 10.0 mi WNW 27.6 mph 40.3 mph N/A   Clear
11:55 AM 28.4 °F 11.6 °F 10.4 °F 47% 29.93 in 10.0 mi WNW 35.7 mph 41.4 mph N/A   Clear
12:15 PM 28.4 °F 13.0 °F 10.4 °F 47% 29.94 in 10.0 mi WNW 28.8 mph 36.8 mph N/A   Clear
12:35 PM 30.2 °F 15.7 °F 8.6 °F 40% 29.94 in 10.0 mi WNW 27.6 mph 40.3 mph N/A   Clear
12:55 PM 30.2 °F 15.2 °F 8.6 °F 40% 29.93 in 10.0 mi WNW 29.9 mph 40.3 mph N/A   Clear
1:15 PM 30.2 °F 16.2 °F 10.4 °F 44% 29.95 in 10.0 mi WNW 25.3 mph 39.1 mph N/A   Clear
1:55 PM 32.0 °F 17.4 °F 6.8 °F 35% 29.95 in 10.0 mi WNW 31.1 mph 39.1 mph N/A   Clear
2:15 PM 32.0 °F 18.1 °F 8.6 °F 38% 29.96 in 10.0 mi WNW 27.6 mph 34.5 mph N/A   Clear
2:35 PM 32.0 °F 18.1 °F 8.6 °F 38% 29.97 in 10.0 mi WNW 27.6 mph 36.8 mph N/A   Clear
2:55 PM 32.0 °F 18.9 °F 8.6 °F 38% 29.99 in 10.0 mi WNW 24.2 mph 36.8 mph N/A   Clear
3:15 PM 32.0 °F 19.2 °F 6.8 °F 35% 29.99 in 10.0 mi WNW 23.0 mph 32.2 mph N/A   Clear
3:35 PM 32.0 °F 20.1 °F 8.6 °F 38% 30.00 in 10.0 mi WNW 19.6 mph 27.6 mph N/A   Clear
3:55 PM 32.0 °F 18.1 °F 5.0 °F 32% 30.00 in 10.0 mi WNW 27.6 mph 38.0 mph N/A   Clear
4:15 PM 32.0 °F 18.6 °F 6.8 °F 35% 30.01 in 10.0 mi WNW 25.3 mph 33.4 mph N/A   Clear
4:35 PM 30.2 °F 16.2 °F 6.8 °F 37% 30.01 in 10.0 mi WNW 25.3 mph 33.4 mph N/A   Clear
4:55 PM 30.2 °F 17.1 °F 8.6 °F 40% 30.03 in 10.0 mi West 21.9 mph 28.8 mph N/A   Clear
5:15 PM 30.2 °F 16.5 °F 6.8 °F 37% 30.04 in 10.0 mi West 24.2 mph 28.8 mph N/A   Clear
5:35 PM 30.2 °F 17.4 °F 6.8 °F 37% 30.04 in 10.0 mi West 20.7 mph 28.8 mph N/A   Clear
5:55 PM 28.4 °F 14.7 °F 8.6 °F 43% 30.05 in 10.0 mi West 21.9 mph 27.6 mph N/A   Clear
6:15 PM 28.4 °F 15.4 °F 6.8 °F 40% 30.07 in 10.0 mi West 19.6 mph 27.6 mph N/A   Clear
6:35 PM 28.4 °F 15.1 °F 5.0 °F 37% 30.09 in 10.0 mi West 20.7 mph 28.8 mph N/A   Clear
6:55 PM 28.4 °F 14.4 °F 3.2 °F 34% 30.09 in 10.0 mi West 23.0 mph 28.8 mph N/A   Clear
7:15 PM 28.4 °F 14.4 °F 5.0 °F 37% 30.09 in 10.0 mi West 23.0 mph 28.8 mph N/A   Clear
7:35 PM 28.4 °F 15.1 °F 3.2 °F 34% 30.09 in 10.0 mi West 20.7 mph 27.6 mph N/A   Clear
7:55 PM 28.4 °F 15.1 °F 6.8 °F 40% 30.10 in 10.0 mi West 20.7 mph 28.8 mph N/A   Clear
8:15 PM 28.4 °F 16.6 °F 6.8 °F 40% 30.11 in 10.0 mi West 16.1 mph 28.8 mph N/A   Clear
8:35 PM 28.4 °F 14.7 °F 6.8 °F 40% 30.11 in 10.0 mi West 21.9 mph 27.6 mph N/A   Clear
8:55 PM 28.4 °F 14.4 °F 10.4 °F 47% 30.11 in 10.0 mi West 23.0 mph 28.8 mph N/A   Clear
9:15 PM 28.4 °F 14.7 °F 10.4 °F 47% 30.11 in 10.0 mi West 21.9 mph 31.1 mph N/A   Clear
9:35 PM 28.4 °F 14.4 °F 8.6 °F 43% 30.11 in 10.0 mi West 23.0 mph 29.9 mph N/A   Clear
9:55 PM 28.4 °F 15.4 °F 8.6 °F 43% 30.12 in 10.0 mi West 19.6 mph 32.2 mph N/A   Clear
10:15 PM 28.4 °F 15.4 °F 6.8 °F 40% 30.14 in 10.0 mi West 19.6 mph 28.8 mph N/A   Clear
10:35 PM 28.4 °F 15.1 °F 8.6 °F 43% 30.13 in 10.0 mi West 20.7 mph 25.3 mph N/A   Clear
10:55 PM 28.4 °F 15.8 °F 8.6 °F 43% 30.14 in 10.0 mi West 18.4 mph 25.3 mph N/A   Clear
11:15 PM 28.4 °F 16.2 °F 8.6 °F 43% 30.14 in 10.0 mi West 17.3 mph 24.2 mph N/A   Clear
11:35 PM 28.4 °F 14.7 °F 8.6 °F 43% 30.14 in 10.0 mi West 21.9 mph 27.6 mph N/A   Clear
11:55 PM 28.4 °F 15.1 °F 8.6 °F 43% 30.15 in 10.0 mi West 20.7 mph 27.6 mph N/A   Clear